Weather in Karasu

Turkey     41°06′12″N   30°41′47″E
temp.,
°C
wind,
m/s
gust,
m/s
humid.,
%
clouds,
%
prec.,
mm/h
press.,
hPa
HPBL,
m
19 september, sun
sun1900:00+18sw22875 2.2 101229
03:00+17sw349416 4.9 101378
06:00+17sw33956 2.8 101461
09:00+20sw23868 3.3 1015341
12:00+24wnw23602 0.0 10141071
15:00+25nne33535 0.1 1013898
18:00+22ene347045 0.3 1012194
21:00+19se228026 0.3 101348
20 september, mon
mon2000:00+19s227547 0.0 101221
03:00+19sse22765 0.4 101323
06:00+19sse22733 0.0 101222
09:00+24sse12560 0.0 1012133
12:00+29nw14374 0.0 10111230
15:00+29nnw36375 0.0 10101602
18:00+25ne34580 0.0 1010128
21:00+21se22630 0.0 101115
21 september, tue
tue2100:00+22s22560 0.0 101121
03:00+21ssw1262100 0.0 101114
06:00+18nne348868 0.0 1014132
09:00+19nne359096 0.3 1016406
12:00+19nnw3388100 0.6 1017432
15:00+20n4587100 2.4 1017580
18:00+18ne6993100 1.8 1018650
21:00+16ne71192100 2.6 1020838
22 september, wed
wed2200:00+15ne6991100 0.4 1020713
03:00+14ene4790100 0.8 1020521
06:00+14ne478694 0.4 1020382
09:00+15ene577783 0.8 1019825
12:00+17ne676469 0.3 10181288
15:00+17ne775784 0.4 10161403
18:00+16ne676051 0.0 10161114
21:00+14ene4865100 0.0 1015538
23 september, thu
thu2300:00+12e3572100 0.0 1013211
03:00+12ese2272100 0.0 101252
06:00+11sw117894 0.2 101228
09:00+12wsw2277100 0.6 1013186
12:00+12n61097100 10.4 1013742
15:00+12n71092100 25.7 1015841
18:00+12ne3590100 3.9 1017321
21:00+12nne468156 5.9 1018246